SWR21M LSZH-EGLL

Flight info

Callsign SWR21M
Flight time 1h 2m
Altitude 40000
Route VEBIT T10 TORPA DCT REKLA DCT RLP DCT ROTSI DCT KOTUN DCT NINAL DCT ABNUR DCT DIMAL DCT ALESO
Aircraft A343/H-SDE2E3FGHIJ4J5M1P2RWXY/LB1D1

Departure

Time 2026-05-01 14:15
Airport Zürich Airport (LSZH)

Arrival

Time 2026-05-01 15:18
Airport London Heathrow Airport (EGLL)
Time Latitude Longitude Altitude Speed Heading
2026-05-01 13:36 47.45162 8.55991 1417 ft 0 kts 186°
2026-05-01 14:02 47.45163 8.55992 1411 ft 2 kts 186°
2026-05-01 14:02 47.45188 8.55995 1411 ft 4 kts 181°
2026-05-01 14:02 47.45212 8.55990 1415 ft 4 kts 141°
2026-05-01 14:02 47.45224 8.55964 1416 ft 4 kts 110°
2026-05-01 14:03 47.45231 8.55926 1417 ft 4 kts 96°
2026-05-01 14:03 47.45234 8.55887 1412 ft 4 kts 115°
2026-05-01 14:03 47.45243 8.55877 1414 ft 4 kts 198°
2026-05-01 14:03 47.45252 8.55895 1418 ft 4 kts 272°
2026-05-01 14:04 47.45250 8.55932 1414 ft 3 kts 276°
2026-05-01 14:04 47.45248 8.55967 1416 ft 1 kts 276°
2026-05-01 14:05 47.45247 8.55967 1416 ft 0 kts 276°
2026-05-01 14:08 47.45248 8.55964 1416 ft 1 kts 276°
2026-05-01 14:08 47.45249 8.55944 1413 ft 3 kts 276°
2026-05-01 14:08 47.45253 8.55893 1418 ft 6 kts 276°
2026-05-01 14:08 47.45259 8.55816 1414 ft 9 kts 276°
2026-05-01 14:09 47.45266 8.55715 1411 ft 11 kts 276°
2026-05-01 14:09 47.45276 8.55590 1414 ft 13 kts 279°
2026-05-01 14:09 47.45320 8.55446 1413 ft 18 kts 303°
2026-05-01 14:09 47.45427 8.55340 1411 ft 19 kts 335°
2026-05-01 14:10 47.45555 8.55262 1407 ft 20 kts 338°
2026-05-01 14:10 47.45664 8.55229 1411 ft 7 kts 33°
2026-05-01 14:10 47.45677 8.55288 1411 ft 5 kts 93°
2026-05-01 14:10 47.45673 8.55348 1410 ft 8 kts 95°
2026-05-01 14:11 47.45668 8.55438 1405 ft 13 kts 95°
2026-05-01 14:11 47.45642 8.55824 1417 ft 19 kts 96°
2026-05-01 14:11 47.45628 8.56009 1416 ft 18 kts 97°
2026-05-01 14:12 47.45613 8.56189 1418 ft 17 kts 97°
2026-05-01 14:12 47.45598 8.56363 1419 ft 17 kts 95°
2026-05-01 14:12 47.45589 8.56529 1423 ft 16 kts 95°
2026-05-01 14:12 47.45579 8.56687 1426 ft 15 kts 96°
2026-05-01 14:13 47.45569 8.56831 1424 ft 14 kts 96°
2026-05-01 14:13 47.45562 8.56925 1424 ft 14 kts 93°
2026-05-01 14:13 47.45628 8.57013 1429 ft 8 kts 352°
2026-05-01 14:13 47.45662 8.56962 1428 ft 8 kts 296°
2026-05-01 14:14 47.45667 8.56924 1428 ft 0 kts 276°
2026-05-01 14:14 47.45670 8.56877 1427 ft 26 kts 276°
2026-05-01 14:14 47.45716 8.56251 1424 ft 95 kts 276°
2026-05-01 14:14 47.45808 8.54970 1405 ft 151 kts 276°
2026-05-01 14:15 47.45928 8.53279 1746 ft 169 kts 276°
2026-05-01 14:15 47.46049 8.51559 2491 ft 173 kts 277°
2026-05-01 14:15 47.46172 8.49736 3091 ft 188 kts 272°
2026-05-01 14:15 47.45751 8.47769 3482 ft 219 kts 238°
2026-05-01 14:16 47.44800 8.45805 3909 ft 249 kts 232°
2026-05-01 14:16 47.43695 8.43734 4805 ft 259 kts 232°
2026-05-01 14:16 47.42582 8.41628 5864 ft 262 kts 233°
2026-05-01 14:16 47.41466 8.39477 6876 ft 267 kts 233°
2026-05-01 14:17 47.40332 8.37266 7821 ft 272 kts 232°
2026-05-01 14:17 47.39201 8.35000 8768 ft 277 kts 234°
2026-05-01 14:17 47.38215 8.32527 9739 ft 283 kts 240°
2026-05-01 14:17 47.37284 8.29931 10552 ft 292 kts 240°
2026-05-01 14:18 47.36423 8.27101 10973 ft 315 kts 251°
2026-05-01 14:18 47.36070 8.23818 11410 ft 334 kts 266°
2026-05-01 14:18 47.36103 8.20329 12041 ft 345 kts 272°
2026-05-01 14:18 47.36241 8.17977 12535 ft 349 kts 275°
2026-05-01 14:19 47.36663 8.13183 13590 ft 356 kts 277°
2026-05-01 14:19 47.37023 8.09550 14370 ft 360 kts 277°
2026-05-01 14:19 47.37381 8.05870 15081 ft 364 kts 277°
2026-05-01 14:19 47.37723 8.02148 15818 ft 368 kts 276°
2026-05-01 14:20 47.38045 7.98427 16535 ft 372 kts 276°
2026-05-01 14:20 47.38669 7.90756 18001 ft 381 kts 276°
2026-05-01 14:20 47.38978 7.86857 18682 ft 386 kts 276°
2026-05-01 14:21 47.39287 7.82895 19336 ft 389 kts 276°
2026-05-01 14:21 47.39599 7.78917 19987 ft 392 kts 277°
2026-05-01 14:21 47.39913 7.74916 20683 ft 393 kts 277°
2026-05-01 14:22 47.40548 7.66801 21873 ft 402 kts 277°
2026-05-01 14:22 47.40869 7.62676 22455 ft 406 kts 277°
2026-05-01 14:22 47.41190 7.58528 23104 ft 408 kts 277°
2026-05-01 14:22 47.41511 7.54351 23698 ft 411 kts 277°
2026-05-01 14:23 47.41833 7.50148 24209 ft 413 kts 277°
2026-05-01 14:23 47.42156 7.45913 24652 ft 417 kts 277°
2026-05-01 14:23 47.42480 7.41636 25135 ft 420 kts 277°
2026-05-01 14:23 47.42805 7.37323 25557 ft 424 kts 276°
2026-05-01 14:24 47.43019 7.34453 25905 ft 425 kts 277°
2026-05-01 14:24 47.43344 7.30104 26360 ft 427 kts 276°
2026-05-01 14:24 47.43668 7.25738 26845 ft 429 kts 276°
2026-05-01 14:24 47.43994 7.21341 27259 ft 432 kts 276°
2026-05-01 14:25 47.44320 7.16921 27685 ft 435 kts 276°
2026-05-01 14:25 47.44646 7.12467 28079 ft 438 kts 276°
2026-05-01 14:25 47.44972 7.07992 28516 ft 439 kts 276°
2026-05-01 14:25 47.45296 7.03489 28948 ft 441 kts 276°
2026-05-01 14:26 47.45620 6.98973 29322 ft 444 kts 276°
2026-05-01 14:26 47.46271 6.89848 30083 ft 449 kts 276°
2026-05-01 14:26 47.46596 6.85252 30438 ft 451 kts 276°
2026-05-01 14:27 47.46921 6.80631 30780 ft 452 kts 275°
2026-05-01 14:27 47.47245 6.76002 31094 ft 454 kts 275°
2026-05-01 14:27 47.47569 6.71340 31415 ft 456 kts 275°
2026-05-01 14:28 47.48220 6.61983 32045 ft 459 kts 275°
2026-05-01 14:28 47.48558 6.57284 32355 ft 461 kts 275°
2026-05-01 14:28 47.48900 6.52570 32733 ft 461 kts 275°
2026-05-01 14:28 47.49241 6.47876 33163 ft 459 kts 275°
2026-05-01 14:29 47.49579 6.43182 33608 ft 457 kts 275°
2026-05-01 14:29 47.49912 6.38515 34035 ft 455 kts 274°
2026-05-01 14:30 47.50889 6.24588 35038 ft 453 kts 274°
2026-05-01 14:30 47.51209 6.19943 35293 ft 454 kts 274°
2026-05-01 14:30 47.51527 6.15301 35601 ft 453 kts 274°
2026-05-01 14:31 47.52159 6.06045 36235 ft 451 kts 274°
2026-05-01 14:31 47.52466 6.01490 36531 ft 451 kts 274°
2026-05-01 14:31 47.52776 5.96881 36827 ft 450 kts 274°
2026-05-01 14:31 47.53198 5.92294 37105 ft 451 kts 280°
2026-05-01 14:32 47.54019 5.87818 37405 ft 452 kts 288°
2026-05-01 14:32 47.55299 5.83566 37705 ft 452 kts 297°
2026-05-01 14:32 47.57031 5.79690 38047 ft 453 kts 307°
2026-05-01 14:32 47.59053 5.76123 38363 ft 452 kts 309°
2026-05-01 14:33 47.61150 5.72664 38664 ft 451 kts 311°
2026-05-01 14:33 47.63284 5.69249 38934 ft 450 kts 311°
2026-05-01 14:33 47.65422 5.65861 39156 ft 450 kts 311°
2026-05-01 14:33 47.67559 5.62466 39320 ft 450 kts 311°
2026-05-01 14:34 47.69699 5.59043 39406 ft 453 kts 311°
2026-05-01 14:34 47.71833 5.55606 39577 ft 453 kts 311°
2026-05-01 14:34 47.73961 5.52162 39784 ft 452 kts 311°
2026-05-01 14:34 47.76085 5.48713 39996 ft 451 kts 311°
2026-05-01 14:35 47.78203 5.45264 40178 ft 451 kts 311°
2026-05-01 14:35 47.82460 5.38317 40226 ft 458 kts 311°
2026-05-01 14:36 47.86740 5.31318 40223 ft 456 kts 311°
2026-05-01 14:36 47.91002 5.24335 40223 ft 456 kts 311°
2026-05-01 14:37 47.95248 5.17366 40222 ft 459 kts 311°
2026-05-01 14:37 47.99574 5.10227 40225 ft 468 kts 311°
2026-05-01 14:38 48.03977 5.02944 40219 ft 476 kts 310°
2026-05-01 14:38 48.08453 4.95527 40220 ft 483 kts 310°
2026-05-01 14:39 48.12945 4.88064 40216 ft 482 kts 310°
2026-05-01 14:39 48.17430 4.80593 40216 ft 482 kts 310°
2026-05-01 14:40 48.21913 4.73102 40216 ft 483 kts 310°
2026-05-01 14:40 48.26362 4.65645 40217 ft 483 kts 310°
2026-05-01 14:41 48.30872 4.58077 40218 ft 483 kts 310°
2026-05-01 14:41 48.35313 4.50588 40215 ft 483 kts 310°
2026-05-01 14:42 48.39780 4.43030 40215 ft 484 kts 310°
2026-05-01 14:42 48.44251 4.35446 40214 ft 484 kts 310°
2026-05-01 14:43 48.48718 4.27852 40216 ft 484 kts 310°
2026-05-01 14:43 48.53315 4.20014 40219 ft 484 kts 310°
2026-05-01 14:44 48.57773 4.12390 40214 ft 484 kts 310°
2026-05-01 14:44 48.69216 3.92717 40215 ft 485 kts 310°
2026-05-01 14:45 48.83374 3.70726 40219 ft 487 kts 315°
2026-05-01 14:46 48.93162 3.56546 40218 ft 487 kts 317°
2026-05-01 14:46 49.14958 3.26914 40210 ft 487 kts 316°
2026-05-01 14:47 49.35099 2.99076 40197 ft 489 kts 316°
2026-05-01 14:48 49.65286 2.56745 40192 ft 490 kts 316°
2026-05-01 14:48 49.91800 2.18944 40193 ft 491 kts 316°
2026-05-01 14:49 50.00552 2.06338 39746 ft 472 kts 315°
2026-05-01 14:50 50.03741 2.01727 39449 ft 464 kts 315°
2026-05-01 14:50 50.10015 1.92630 38830 ft 464 kts 315°
2026-05-01 14:51 50.12377 1.89195 38538 ft 464 kts 315°
2026-05-01 14:51 50.17075 1.82351 37577 ft 462 kts 315°
2026-05-01 14:52 50.21777 1.75482 36478 ft 464 kts 315°
2026-05-01 14:52 50.24138 1.72026 35914 ft 466 kts 315°
2026-05-01 14:52 50.28904 1.65033 34627 ft 474 kts 315°
2026-05-01 14:53 50.31322 1.61478 33914 ft 479 kts 315°
2026-05-01 14:53 50.33755 1.57896 33157 ft 482 kts 315°
2026-05-01 14:53 50.36205 1.54284 32417 ft 485 kts 315°
2026-05-01 14:53 50.38664 1.50653 31795 ft 485 kts 315°
2026-05-01 14:54 50.41112 1.47034 31316 ft 482 kts 315°
2026-05-01 14:54 50.43541 1.43437 30789 ft 479 kts 315°
2026-05-01 14:54 50.45958 1.39852 30281 ft 476 kts 315°
2026-05-01 14:54 50.48356 1.36290 29698 ft 473 kts 315°
2026-05-01 14:55 50.50733 1.32755 29155 ft 469 kts 315°
2026-05-01 14:55 50.53091 1.29242 28609 ft 465 kts 314°
2026-05-01 14:55 50.55398 1.25799 28098 ft 461 kts 314°
2026-05-01 14:55 50.57715 1.22338 27585 ft 458 kts 314°
2026-05-01 14:56 50.59981 1.18860 27112 ft 453 kts 313°
2026-05-01 14:56 50.62190 1.15348 26590 ft 450 kts 313°
2026-05-01 14:56 50.64383 1.11851 26043 ft 448 kts 312°
2026-05-01 14:56 50.66570 1.08372 25547 ft 445 kts 312°
2026-05-01 14:57 50.68744 1.04916 25026 ft 443 kts 312°
2026-05-01 14:57 50.73074 0.98032 23996 ft 440 kts 312°
2026-05-01 14:57 50.75223 0.94611 23447 ft 438 kts 312°
2026-05-01 14:58 50.77358 0.91209 22919 ft 434 kts 312°
2026-05-01 14:58 50.79477 0.87830 22396 ft 430 kts 312°
2026-05-01 14:58 50.81573 0.84481 21890 ft 427 kts 312°
2026-05-01 14:58 50.83652 0.81155 21384 ft 424 kts 312°
2026-05-01 14:59 50.85718 0.77847 20886 ft 421 kts 312°
2026-05-01 14:59 50.87764 0.74571 20400 ft 417 kts 311°
2026-05-01 14:59 50.89799 0.71303 19895 ft 415 kts 311°
2026-05-01 14:59 50.91815 0.68058 19389 ft 412 kts 311°
2026-05-01 15:00 50.95817 0.61605 18384 ft 408 kts 311°
2026-05-01 15:00 50.97803 0.58401 17785 ft 407 kts 311°
2026-05-01 15:00 50.99785 0.55200 17137 ft 406 kts 311°
2026-05-01 15:01 51.01763 0.51995 16525 ft 406 kts 311°
2026-05-01 15:01 51.03732 0.48800 15917 ft 405 kts 311°
2026-05-01 15:01 51.05698 0.45609 15334 ft 403 kts 311°
2026-05-01 15:01 51.07657 0.42443 14790 ft 400 kts 313°
2026-05-01 15:02 51.09657 0.39379 14245 ft 398 kts 314°
2026-05-01 15:02 51.10310 0.38396 14103 ft 397 kts 314°
2026-05-01 15:02 51.13559 0.33496 13604 ft 365 kts 314°
2026-05-01 15:02 51.15343 0.30792 13191 ft 344 kts 313°
2026-05-01 15:03 51.17030 0.28220 12703 ft 329 kts 313°
2026-05-01 15:03 51.18661 0.25724 12091 ft 321 kts 313°
2026-05-01 15:03 51.20258 0.23280 11521 ft 314 kts 313°
2026-05-01 15:03 51.21794 0.20922 11228 ft 298 kts 313°
2026-05-01 15:04 51.23251 0.18684 10985 ft 285 kts 312°
2026-05-01 15:04 51.24654 0.16524 10621 ft 278 kts 312°
2026-05-01 15:04 51.26038 0.14388 10321 ft 276 kts 312°
2026-05-01 15:04 51.27408 0.12273 10150 ft 273 kts 312°
2026-05-01 15:05 51.28767 0.10173 9988 ft 270 kts 312°
2026-05-01 15:05 51.30114 0.08091 9777 ft 269 kts 312°
2026-05-01 15:05 51.31438 0.06045 9536 ft 268 kts 312°
2026-05-01 15:05 51.32773 0.03980 9332 ft 267 kts 312°
2026-05-01 15:06 51.34100 0.01916 9183 ft 265 kts 311°
2026-05-01 15:06 51.35158 -0.00413 8963 ft 255 kts 287°
2026-05-01 15:06 51.35565 -0.03115 8769 ft 248 kts 273°
2026-05-01 15:06 51.35764 -0.05852 8546 ft 248 kts 271°
2026-05-01 15:07 51.35932 -0.08597 8469 ft 247 kts 271°
2026-05-01 15:07 51.36094 -0.11338 8357 ft 248 kts 271°
2026-05-01 15:07 51.36256 -0.14069 8155 ft 246 kts 271°
2026-05-01 15:07 51.36418 -0.16790 7959 ft 245 kts 271°
2026-05-01 15:08 51.36623 -0.19492 7755 ft 244 kts 275°
2026-05-01 15:08 51.37232 -0.22021 7555 ft 249 kts 302°
2026-05-01 15:08 51.38559 -0.23787 7347 ft 253 kts 333°
2026-05-01 15:08 51.40267 -0.24286 7176 ft 250 kts
2026-05-01 15:09 51.41843 -0.23402 7026 ft 233 kts 38°
2026-05-01 15:09 51.42814 -0.21490 6879 ft 217 kts 72°
2026-05-01 15:09 51.43034 -0.19189 6691 ft 207 kts 96°
2026-05-01 15:09 51.42940 -0.16883 6444 ft 208 kts 100°
2026-05-01 15:10 51.42798 -0.14572 6193 ft 210 kts 101°
2026-05-01 15:10 51.42536 -0.10683 5776 ft 213 kts 100°
2026-05-01 15:10 51.42419 -0.08300 5454 ft 220 kts 90°
2026-05-01 15:11 51.42939 -0.05957 5048 ft 232 kts 56°
2026-05-01 15:11 51.45677 -0.04123 4214 ft 221 kts 341°
2026-05-01 15:11 51.46839 -0.05425 4052 ft 196 kts 303°
2026-05-01 15:12 51.47493 -0.07296 3989 ft 192 kts 288°
2026-05-01 15:12 51.47849 -0.11416 3943 ft 185 kts 264°
2026-05-01 15:12 51.47851 -0.13473 3766 ft 184 kts 265°
2026-05-01 15:13 51.47840 -0.19636 2941 ft 184 kts 265°
2026-05-01 15:14 51.47830 -0.23705 2453 ft 175 kts 264°
2026-05-01 15:14 51.47824 -0.25551 2246 ft 161 kts 264°
2026-05-01 15:14 51.47812 -0.29117 1834 ft 158 kts 264°
2026-05-01 15:15 51.47799 -0.32622 1423 ft 156 kts 264°
2026-05-01 15:15 51.47790 -0.35988 1019 ft 140 kts 264°
2026-05-01 15:16 51.47780 -0.38914 668 ft 128 kts 267°
2026-05-01 15:16 51.47772 -0.41813 327 ft 134 kts 260°
2026-05-01 15:17 51.47757 -0.44651 98 ft 108 kts 266°
2026-05-01 15:18 51.47751 -0.46392 93 ft 32 kts 264°
2026-05-01 15:18 51.47723 -0.46623 96 ft 0 kts 251°
2026-05-01 15:19 51.47643 -0.46855 95 ft 2 kts 217°
2026-05-01 15:19 51.47581 -0.46911 94 ft 7 kts 205°
2026-05-01 15:19 51.47527 -0.46919 94 ft 8 kts 168°
2026-05-01 15:20 51.47504 -0.46762 92 ft 10 kts 74°
2026-05-01 15:20 51.47509 -0.46653 94 ft 11 kts 90°
2026-05-01 15:20 51.47510 -0.46525 94 ft 12 kts 88°
2026-05-01 15:21 51.47515 -0.46378 92 ft 14 kts 87°
2026-05-01 15:21 51.47517 -0.46211 90 ft 16 kts 89°
2026-05-01 15:21 51.47519 -0.46025 90 ft 17 kts 89°
2026-05-01 15:21 51.47519 -0.45825 93 ft 19 kts 90°
2026-05-01 15:22 51.47508 -0.45389 94 ft 21 kts 90°
2026-05-01 15:22 51.47508 -0.45153 94 ft 22 kts 90°
2026-05-01 15:22 51.47510 -0.44902 94 ft 23 kts 89°
2026-05-01 15:23 51.47513 -0.44683 93 ft 19 kts 89°
2026-05-01 15:23 51.47439 -0.44563 94 ft 17 kts 176°
2026-05-01 15:23 51.47322 -0.44558 90 ft 17 kts 179°
2026-05-01 15:23 51.47200 -0.44558 90 ft 18 kts 180°
2026-05-01 15:24 51.47073 -0.44560 90 ft 19 kts 180°
2026-05-01 15:24 51.46958 -0.44561 90 ft 11 kts 197°
2026-05-01 15:24 51.46937 -0.44631 94 ft 7 kts 268°
2026-05-01 15:24 51.46937 -0.44677 93 ft 0 kts 269°
2026-05-01 15:25 51.46937 -0.44695 93 ft 3 kts 269°
2026-05-01 15:25 51.46937 -0.44699 93 ft 0 kts 269°